Time,TemperatureF,DewpointF,PressureIn,WindDirection,WindDirectionDegrees,WindSpeedMPH,WindSpeedGustMPH,Humidity,HourlyPrecipIn,Conditions,Clouds,dailyrainin,SoftwareType,DateUTC
2013-01-24 00:09:00,49.8,43.9,29.94,West,269,0.0,-999.0,80,0.00,,,0.01,Wunderground v.1.15,2013-01-24 08:09:00,
2013-01-24 00:19:00,49.4,44.1,29.94,West,269,0.0,-999.0,82,0.00,,,0.01,Wunderground v.1.15,2013-01-24 08:19:00,
2013-01-24 00:29:00,49.1,43.8,29.94,West,269,0.0,-999.0,82,0.00,,,0.01,Wunderground v.1.15,2013-01-24 08:29:00,
2013-01-24 00:39:00,48.9,44.3,29.94,West,269,0.0,-999.0,84,0.00,,,0.01,Wunderground v.1.15,2013-01-24 08:39:00,
2013-01-24 00:49:00,48.8,43.9,29.94,West,269,0.0,-999.0,83,0.00,,,0.01,Wunderground v.1.15,2013-01-24 08:49:00,
2013-01-24 00:59:00,48.9,44.0,29.94,West,269,0.0,-999.0,83,0.00,,,0.01,Wunderground v.1.15,2013-01-24 08:59:00,
2013-01-24 01:09:00,49.0,44.1,29.94,West,269,0.0,-999.0,83,0.00,,,0.01,Wunderground v.1.15,2013-01-24 09:09:00,
2013-01-24 01:19:00,49.2,44.6,29.93,West,269,0.0,-999.0,84,0.00,,,0.01,Wunderground v.1.15,2013-01-24 09:19:00,
2013-01-24 01:29:00,49.0,44.4,29.93,West,269,0.0,-999.0,84,0.00,,,0.01,Wunderground v.1.15,2013-01-24 09:29:00,
2013-01-24 01:39:00,48.8,44.5,29.94,West,269,0.0,-999.0,85,0.00,,,0.01,Wunderground v.1.15,2013-01-24 09:39:00,
2013-01-24 01:49:00,48.9,44.3,29.94,West,269,0.0,-999.0,84,0.00,,,0.01,Wunderground v.1.15,2013-01-24 09:49:00,
2013-01-24 01:59:00,49.0,44.1,29.94,West,269,0.0,-999.0,83,0.00,,,0.01,Wunderground v.1.15,2013-01-24 09:59:00,
2013-01-24 02:09:00,49.4,44.5,29.94,West,269,0.0,-999.0,83,0.00,,,0.01,Wunderground v.1.15,2013-01-24 10:09:00,
2013-01-24 02:19:00,49.7,44.7,29.94,West,269,0.0,-999.0,83,0.00,,,0.01,Wunderground v.1.15,2013-01-24 10:19:00,
2013-01-24 02:29:00,49.7,45.1,29.95,West,269,0.0,-999.0,84,0.00,,,0.01,Wunderground v.1.15,2013-01-24 10:29:00,
2013-01-24 02:39:00,49.5,45.2,29.95,West,269,0.0,-999.0,85,0.00,,,0.01,Wunderground v.1.15,2013-01-24 10:39:00,
2013-01-24 02:49:00,49.2,45.5,29.95,West,269,0.0,-999.0,87,0.00,,,0.02,Wunderground v.1.15,2013-01-24 10:49:00,
2013-01-24 02:59:00,48.8,45.7,29.95,West,269,0.0,-999.0,89,0.00,,,0.02,Wunderground v.1.15,2013-01-24 10:59:00,
2013-01-24 03:09:00,48.6,45.5,29.95,West,269,0.0,-999.0,89,0.07,,,0.04,Wunderground v.1.15,2013-01-24 11:09:00,
2013-01-24 03:19:00,48.4,45.6,29.95,West,269,0.0,-999.0,90,0.05,,,0.04,Wunderground v.1.15,2013-01-24 11:19:00,
2013-01-24 03:29:00,48.1,45.6,29.95,West,269,0.0,-999.0,91,0.09,,,0.06,Wunderground v.1.15,2013-01-24 11:29:00,
2013-01-24 03:39:00,47.8,45.6,29.94,West,269,0.0,-999.0,92,0.12,,,0.08,Wunderground v.1.15,2013-01-24 11:39:00,
2013-01-24 03:49:00,47.8,45.9,29.94,West,269,0.0,-999.0,93,0.10,,,0.10,Wunderground v.1.15,2013-01-24 11:49:00,
2013-01-24 03:59:00,47.7,45.8,29.94,West,269,0.0,-999.0,93,0.09,,,0.11,Wunderground v.1.15,2013-01-24 11:59:00,
2013-01-24 04:09:00,47.6,46.0,29.94,West,269,0.0,-999.0,94,0.07,,,0.12,Wunderground v.1.15,2013-01-24 12:09:00,
2013-01-24 04:19:00,47.5,45.9,29.94,West,269,0.0,-999.0,94,0.06,,,0.13,Wunderground v.1.15,2013-01-24 12:19:00,
2013-01-24 04:29:00,47.7,46.3,29.94,West,269,0.0,-999.0,95,0.05,,,0.14,Wunderground v.1.15,2013-01-24 12:29:00,
2013-01-24 04:39:00,47.6,46.2,29.95,West,269,0.0,-999.0,95,0.04,,,0.14,Wunderground v.1.15,2013-01-24 12:39:00,
2013-01-24 04:49:00,47.6,46.2,29.95,West,269,0.0,-999.0,95,0.00,,,0.15,Wunderground v.1.15,2013-01-24 12:49:00,
2013-01-24 04:59:00,47.7,46.6,29.95,West,269,0.0,-999.0,96,0.00,,,0.15,Wunderground v.1.15,2013-01-24 12:59:00,
2013-01-24 05:09:00,47.7,46.6,29.95,West,269,0.0,-999.0,96,0.00,,,0.15,Wunderground v.1.15,2013-01-24 13:09:00,
2013-01-24 05:19:00,47.7,46.6,29.95,West,269,0.0,-999.0,96,0.00,,,0.15,Wunderground v.1.15,2013-01-24 13:19:00,
2013-01-24 05:29:00,47.6,46.5,29.95,West,269,0.0,-999.0,96,0.00,,,0.15,Wunderground v.1.15,2013-01-24 13:29:00,
2013-01-24 05:39:00,47.6,46.5,29.95,West,269,0.0,-999.0,96,0.00,,,0.15,Wunderground v.1.15,2013-01-24 13:39:00,
2013-01-24 05:49:00,47.7,46.9,29.95,West,269,0.0,-999.0,97,0.00,,,0.16,Wunderground v.1.15,2013-01-24 13:49:00,
2013-01-24 06:00:00,47.7,46.9,29.95,West,269,0.0,-999.0,97,0.00,,,0.16,Wunderground v.1.15,2013-01-24 14:00:00,
2013-01-24 06:09:00,47.7,46.9,29.95,West,269,0.0,-999.0,97,0.00,,,0.16,Wunderground v.1.15,2013-01-24 14:09:00,
2013-01-24 06:19:00,47.7,46.9,29.96,West,269,0.0,-999.0,97,0.00,,,0.16,Wunderground v.1.15,2013-01-24 14:19:00,
2013-01-24 06:29:00,47.6,46.8,29.96,West,269,0.0,-999.0,97,0.00,,,0.16,Wunderground v.1.15,2013-01-24 14:29:00,
2013-01-24 06:39:00,47.6,46.8,29.96,West,269,0.0,-999.0,97,0.00,,,0.16,Wunderground v.1.15,2013-01-24 14:39:00,
2013-01-24 06:49:00,47.7,46.9,29.96,West,269,0.0,-999.0,97,0.00,,,0.17,Wunderground v.1.15,2013-01-24 14:49:00,
2013-01-24 06:59:00,47.8,47.3,29.97,West,269,0.0,-999.0,98,0.00,,,0.17,Wunderground v.1.15,2013-01-24 14:59:00,
2013-01-24 07:09:00,47.9,47.4,29.97,West,269,0.0,-999.0,98,0.00,,,0.18,Wunderground v.1.15,2013-01-24 15:09:00,
2013-01-24 07:19:00,47.8,47.3,29.97,West,269,0.0,-999.0,98,0.00,,,0.18,Wunderground v.1.15,2013-01-24 15:19:00,
2013-01-24 07:29:00,47.8,47.3,29.97,West,269,0.0,-999.0,98,0.00,,,0.18,Wunderground v.1.15,2013-01-24 15:29:00,
2013-01-24 07:39:00,47.8,47.3,29.98,West,269,0.0,-999.0,98,0.00,,,0.18,Wunderground v.1.15,2013-01-24 15:39:00,
2013-01-24 07:49:00,47.9,47.4,29.98,West,269,0.0,-999.0,98,0.00,,,0.18,Wunderground v.1.15,2013-01-24 15:49:00,
2013-01-24 07:59:00,47.8,47.3,29.99,West,269,0.0,-999.0,98,0.00,,,0.18,Wunderground v.1.15,2013-01-24 15:59:00,
2013-01-24 08:09:00,47.8,47.3,29.99,West,269,0.0,-999.0,98,0.00,,,0.18,Wunderground v.1.15,2013-01-24 16:09:00,
2013-01-24 08:19:00,47.9,47.4,29.99,West,269,0.0,-999.0,98,0.00,,,0.18,Wunderground v.1.15,2013-01-24 16:19:00,
2013-01-24 08:29:00,48.0,47.5,30.00,West,269,0.0,-999.0,98,0.00,,,0.18,Wunderground v.1.15,2013-01-24 16:29:00,
2013-01-24 08:39:00,48.1,47.6,30.00,West,269,0.0,-999.0,98,0.00,,,0.18,Wunderground v.1.15,2013-01-24 16:39:00,
2013-01-24 08:49:00,48.2,47.7,30.00,West,269,0.0,-999.0,98,0.00,,,0.18,Wunderground v.1.15,2013-01-24 16:49:00,
2013-01-24 08:59:00,48.2,47.7,30.00,West,269,0.0,-999.0,98,0.00,,,0.18,Wunderground v.1.15,2013-01-24 16:59:00,
2013-01-24 09:09:00,48.5,48.0,30.00,West,269,0.0,-999.0,98,0.00,,,0.18,Wunderground v.1.15,2013-01-24 17:09:00,
2013-01-24 09:19:00,49.0,48.7,30.00,West,269,0.0,-999.0,99,0.00,,,0.18,Wunderground v.1.15,2013-01-24 17:19:00,
2013-01-24 09:29:00,49.5,49.2,30.00,West,269,0.0,-999.0,99,0.00,,,0.18,Wunderground v.1.15,2013-01-24 17:29:00,
2013-01-24 09:39:00,49.7,49.2,30.01,West,269,0.0,-999.0,98,0.00,,,0.18,Wunderground v.1.15,2013-01-24 17:39:00,
2013-01-24 09:49:00,49.9,49.4,30.01,West,269,0.0,-999.0,98,0.00,,,0.18,Wunderground v.1.15,2013-01-24 17:49:00,
2013-01-24 09:59:00,49.9,49.4,30.02,West,269,0.0,-999.0,98,0.00,,,0.18,Wunderground v.1.15,2013-01-24 17:59:00,
2013-01-24 10:09:00,50.2,49.9,30.02,West,269,0.0,-999.0,99,0.00,,,0.18,Wunderground v.1.15,2013-01-24 18:09:00,
2013-01-24 10:19:00,50.4,49.9,30.02,West,269,0.0,-999.0,98,0.00,,,0.18,Wunderground v.1.15,2013-01-24 18:19:00,
2013-01-24 10:29:00,50.8,50.5,30.02,West,269,0.0,-999.0,99,0.00,,,0.18,Wunderground v.1.15,2013-01-24 18:29:00,
2013-01-24 10:39:00,50.9,50.6,30.02,West,269,0.0,-999.0,99,0.00,,,0.18,Wunderground v.1.15,2013-01-24 18:39:00,
2013-01-24 10:49:00,51.3,51.0,30.02,West,269,0.0,-999.0,99,0.00,,,0.19,Wunderground v.1.15,2013-01-24 18:49:00,
2013-01-24 10:59:00,52.1,51.8,30.01,West,269,0.0,-999.0,99,0.08,,,0.20,Wunderground v.1.15,2013-01-24 18:59:00,
2013-01-24 11:09:00,52.9,52.6,30.01,West,269,0.0,-999.0,99,0.04,,,0.20,Wunderground v.1.15,2013-01-24 19:09:00,
2013-01-24 11:19:00,52.8,52.5,30.01,West,269,0.0,-999.0,99,0.00,,,0.20,Wunderground v.1.15,2013-01-24 19:19:00,
2013-01-24 11:29:00,53.2,52.9,30.01,West,271,0.0,-999.0,99,0.00,,,0.20,Wunderground v.1.15,2013-01-24 19:29:00,
2013-01-24 11:39:00,53.3,53.0,30.01,West,271,0.0,-999.0,99,0.00,,,0.20,Wunderground v.1.15,2013-01-24 19:39:00,
2013-01-24 11:49:00,53.3,53.0,30.00,West,271,0.0,-999.0,99,0.00,,,0.20,Wunderground v.1.15,2013-01-24 19:49:00,
2013-01-24 11:59:00,53.1,52.8,30.00,West,271,0.0,-999.0,99,0.00,,,0.20,Wunderground v.1.15,2013-01-24 19:59:00,
2013-01-24 12:09:00,53.4,53.1,29.99,West,271,0.0,-999.0,99,0.00,,,0.21,Wunderground v.1.15,2013-01-24 20:09:00,
2013-01-24 12:19:00,53.7,53.4,29.99,West,271,0.0,-999.0,99,0.04,,,0.22,Wunderground v.1.15,2013-01-24 20:19:00,
2013-01-24 12:29:00,54.4,54.1,29.99,West,271,0.0,-999.0,99,0.04,,,0.22,Wunderground v.1.15,2013-01-24 20:29:00,
2013-01-24 12:39:00,54.9,54.6,29.99,West,271,0.0,-999.0,99,0.00,,,0.22,Wunderground v.1.15,2013-01-24 20:39:00,
2013-01-24 12:49:00,54.9,54.6,29.99,West,271,0.0,-999.0,99,0.00,,,0.22,Wunderground v.1.15,2013-01-24 20:49:00,
2013-01-24 12:59:00,54.8,54.5,29.98,West,271,0.0,-999.0,99,0.00,,,0.22,Wunderground v.1.15,2013-01-24 20:59:00,
2013-01-24 13:09:00,55.3,55.0,29.98,West,271,0.0,-999.0,99,0.00,,,0.22,Wunderground v.1.15,2013-01-24 21:09:00,
2013-01-24 13:19:00,55.5,55.2,29.98,West,271,0.0,-999.0,99,0.00,,,0.22,Wunderground v.1.15,2013-01-24 21:19:00,
2013-01-24 13:29:00,55.7,55.4,29.98,West,271,0.0,-999.0,99,0.00,,,0.22,Wunderground v.1.15,2013-01-24 21:29:00,
2013-01-24 13:39:00,56.0,55.7,29.97,West,271,0.0,-999.0,99,0.00,,,0.22,Wunderground v.1.15,2013-01-24 21:39:00,
2013-01-24 13:49:00,56.4,56.1,29.97,West,271,0.0,-999.0,99,0.00,,,0.22,Wunderground v.1.15,2013-01-24 21:49:00,
2013-01-24 13:59:00,57.3,57.3,29.97,West,271,0.0,-999.0,100,0.00,,,0.22,Wunderground v.1.15,2013-01-24 21:59:00,
2013-01-24 14:09:00,57.6,57.3,29.97,West,271,0.0,-999.0,99,0.00,,,0.22,Wunderground v.1.15,2013-01-24 22:09:00,
2013-01-24 14:19:00,57.2,56.9,29.97,West,271,0.0,-999.0,99,0.00,,,0.22,Wunderground v.1.15,2013-01-24 22:19:00,
2013-01-24 14:29:00,57.3,57.0,29.97,West,271,0.0,-999.0,99,0.00,,,0.22,Wunderground v.1.15,2013-01-24 22:29:00,
2013-01-24 14:39:00,57.3,57.0,29.97,West,271,0.0,-999.0,99,0.00,,,0.22,Wunderground v.1.15,2013-01-24 22:39:00,
2013-01-24 14:49:00,57.3,57.0,29.97,West,271,0.0,-999.0,99,0.00,,,0.23,Wunderground v.1.15,2013-01-24 22:49:00,
2013-01-24 14:59:00,57.2,56.9,29.97,West,271,0.0,-999.0,99,0.06,,,0.24,Wunderground v.1.15,2013-01-24 22:59:00,
2013-01-24 15:09:00,57.4,57.1,29.97,West,271,0.0,-999.0,99,0.04,,,0.24,Wunderground v.1.15,2013-01-24 23:09:00,
2013-01-24 15:19:00,57.3,57.0,29.97,West,271,0.0,-999.0,99,0.00,,,0.24,Wunderground v.1.15,2013-01-24 23:19:00,
2013-01-24 15:29:00,57.5,57.2,29.97,West,271,0.0,-999.0,99,0.00,,,0.24,Wunderground v.1.15,2013-01-24 23:29:00,
2013-01-24 15:39:00,57.2,56.9,29.97,West,271,0.0,-999.0,99,0.00,,,0.24,Wunderground v.1.15,2013-01-24 23:39:00,
2013-01-24 15:49:00,57.0,56.7,29.97,West,271,0.0,-999.0,99,0.00,,,0.24,Wunderground v.1.15,2013-01-24 23:49:00,
2013-01-24 15:59:00,56.9,56.6,29.97,West,271,0.0,-999.0,99,0.00,,,0.24,Wunderground v.1.15,2013-01-24 23:59:00,
2013-01-24 16:09:00,56.7,56.4,29.98,West,271,0.0,-999.0,99,0.00,,,0.24,Wunderground v.1.15,2013-01-25 00:09:00,
2013-01-24 16:19:00,56.6,56.3,29.98,West,271,0.0,-999.0,99,0.00,,,0.24,Wunderground v.1.15,2013-01-25 00:19:00,
2013-01-24 16:29:00,56.3,56.0,29.98,West,271,0.0,-999.0,99,0.00,,,0.24,Wunderground v.1.15,2013-01-25 00:29:00,
2013-01-24 16:39:00,56.1,55.8,29.98,West,271,0.0,-999.0,99,0.00,,,0.24,Wunderground v.1.15,2013-01-25 00:39:00,
2013-01-24 16:49:00,56.1,55.8,29.98,West,271,0.0,-999.0,99,0.00,,,0.24,Wunderground v.1.15,2013-01-25 00:49:00,
2013-01-24 16:59:00,56.0,55.7,29.99,West,271,0.0,-999.0,99,0.00,,,0.24,Wunderground v.1.15,2013-01-25 00:59:00,
2013-01-24 17:09:00,55.8,55.5,29.99,West,271,0.0,-999.0,99,0.00,,,0.24,Wunderground v.1.15,2013-01-25 01:09:00,
2013-01-24 17:19:00,55.7,55.4,29.99,West,271,0.0,-999.0,99,0.00,,,0.24,Wunderground v.1.15,2013-01-25 01:19:00,
2013-01-24 17:29:00,55.5,55.2,29.99,West,271,0.0,-999.0,99,0.00,,,0.24,Wunderground v.1.15,2013-01-25 01:29:00,
2013-01-24 17:39:00,55.3,55.0,29.99,West,271,0.0,-999.0,99,0.00,,,0.24,Wunderground v.1.15,2013-01-25 01:39:00,
2013-01-24 17:49:00,55.2,54.9,29.99,West,271,0.0,-999.0,99,0.00,,,0.24,Wunderground v.1.15,2013-01-25 01:49:00,
2013-01-24 17:59:00,55.1,54.8,30.00,West,271,0.0,-999.0,99,0.00,,,0.24,Wunderground v.1.15,2013-01-25 01:59:00,
2013-01-24 18:09:00,55.0,54.7,30.00,West,271,0.0,-999.0,99,0.00,,,0.24,Wunderground v.1.15,2013-01-25 02:09:00,
2013-01-24 18:19:00,54.9,54.6,30.00,West,271,0.0,-999.0,99,0.00,,,0.24,Wunderground v.1.15,2013-01-25 02:19:00,
2013-01-24 18:29:00,54.9,54.6,30.01,West,271,0.0,-999.0,99,0.00,,,0.24,Wunderground v.1.15,2013-01-25 02:29:00,
2013-01-24 18:39:00,54.8,54.5,30.01,West,271,0.0,-999.0,99,0.00,,,0.24,Wunderground v.1.15,2013-01-25 02:39:00,
2013-01-24 18:49:00,54.7,54.4,30.01,West,271,0.0,-999.0,99,0.00,,,0.24,Wunderground v.1.15,2013-01-25 02:49:00,
2013-01-24 18:59:00,54.6,54.6,30.01,West,271,0.0,-999.0,100,0.00,,,0.24,Wunderground v.1.15,2013-01-25 02:59:00,
2013-01-24 19:09:00,54.6,54.3,30.01,West,271,0.0,-999.0,99,0.00,,,0.24,Wunderground v.1.15,2013-01-25 03:09:00,
2013-01-24 19:19:00,54.4,54.1,30.02,West,271,0.0,-999.0,99,0.00,,,0.24,Wunderground v.1.15,2013-01-25 03:19:00,
2013-01-24 19:29:00,54.5,54.2,30.02,West,271,0.0,-999.0,99,0.00,,,0.24,Wunderground v.1.15,2013-01-25 03:29:00,
2013-01-24 19:39:00,54.5,54.5,30.02,West,271,0.0,-999.0,100,0.00,,,0.24,Wunderground v.1.15,2013-01-25 03:39:00,
2013-01-24 19:49:00,54.5,54.2,30.02,West,271,0.0,-999.0,99,0.00,,,0.24,Wunderground v.1.15,2013-01-25 03:49:00,
2013-01-24 19:59:00,54.4,54.4,30.02,West,271,0.0,-999.0,100,0.00,,,0.24,Wunderground v.1.15,2013-01-25 03:59:00,
2013-01-24 20:09:00,54.3,54.3,30.02,West,271,0.0,-999.0,100,0.00,,,0.24,Wunderground v.1.15,2013-01-25 04:09:00,
2013-01-24 20:19:00,54.2,54.2,30.02,West,271,0.0,-999.0,100,0.00,,,0.24,Wunderground v.1.15,2013-01-25 04:19:00,
2013-01-24 20:29:00,54.1,54.1,30.03,West,271,0.0,-999.0,100,0.00,,,0.24,Wunderground v.1.15,2013-01-25 04:29:00,
2013-01-24 20:39:00,54.5,54.5,30.03,SE,143,0.0,-999.0,100,0.00,,,0.24,Wunderground v.1.15,2013-01-25 04:39:00,
2013-01-24 20:49:00,54.6,54.6,30.04,SE,130,1.0,-999.0,100,0.00,,,0.24,Wunderground v.1.15,2013-01-25 04:49:00,
2013-01-24 20:59:00,54.6,54.6,30.04,ENE,74,1.0,-999.0,100,0.00,,,0.24,Wunderground v.1.15,2013-01-25 04:59:00,
2013-01-24 21:09:00,54.4,54.4,30.05,ENE,74,0.0,-999.0,100,0.00,,,0.24,Wunderground v.1.15,2013-01-25 05:09:00,
2013-01-24 21:19:00,54.4,54.4,30.05,ENE,74,0.0,-999.0,100,0.00,,,0.24,Wunderground v.1.15,2013-01-25 05:19:00,
2013-01-24 21:29:00,54.3,54.3,30.05,ENE,74,0.0,-999.0,100,0.00,,,0.24,Wunderground v.1.15,2013-01-25 05:29:00,
2013-01-24 21:39:00,54.2,54.2,30.05,ENE,74,0.0,-999.0,100,0.00,,,0.24,Wunderground v.1.15,2013-01-25 05:39:00,
2013-01-24 21:49:00,54.4,54.4,30.05,ESE,104,1.0,-999.0,100,0.00,,,0.24,Wunderground v.1.15,2013-01-25 05:49:00,
2013-01-24 21:59:00,54.4,54.1,30.05,ESE,104,0.0,-999.0,99,0.00,,,0.25,Wunderground v.1.15,2013-01-25 05:59:00,
2013-01-24 22:09:00,54.3,54.3,30.05,ESE,104,0.0,-999.0,100,0.00,,,0.25,Wunderground v.1.15,2013-01-25 06:09:00,
2013-01-24 22:19:00,54.3,54.3,30.05,ESE,104,0.0,-999.0,100,0.00,,,0.25,Wunderground v.1.15,2013-01-25 06:19:00,
2013-01-24 22:29:00,54.2,54.2,30.05,ESE,104,0.0,-999.0,100,0.00,,,0.25,Wunderground v.1.15,2013-01-25 06:29:00,
2013-01-24 22:39:00,54.0,54.0,30.05,ESE,104,0.0,-999.0,100,0.00,,,0.25,Wunderground v.1.15,2013-01-25 06:39:00,
2013-01-24 22:49:00,54.1,54.1,30.06,ESE,104,0.0,-999.0,100,0.00,,,0.25,Wunderground v.1.15,2013-01-25 06:49:00,
2013-01-24 22:59:00,54.1,54.1,30.05,ESE,104,0.0,-999.0,100,0.00,,,0.25,Wunderground v.1.15,2013-01-25 06:59:00,
2013-01-24 23:09:00,53.9,53.6,30.05,ESE,104,0.0,-999.0,99,0.00,,,0.25,Wunderground v.1.15,2013-01-25 07:09:00,
2013-01-24 23:19:00,53.7,53.4,30.05,ESE,104,0.0,-999.0,99,0.00,,,0.25,Wunderground v.1.15,2013-01-25 07:19:00,
2013-01-24 23:29:00,53.5,53.5,30.06,ESE,104,0.0,-999.0,100,0.00,,,0.25,Wunderground v.1.15,2013-01-25 07:29:00,
2013-01-24 23:39:00,53.6,53.6,30.06,ESE,104,0.0,-999.0,100,0.00,,,0.25,Wunderground v.1.15,2013-01-25 07:39:00,
2013-01-24 23:49:00,53.6,53.6,30.06,ESE,104,0.0,-999.0,100,0.00,,,0.25,Wunderground v.1.15,2013-01-25 07:49:00,
2013-01-24 23:59:00,53.7,53.7,30.06,ESE,104,0.0,-999.0,100,0.00,,,0.25,Wunderground v.1.15,2013-01-25 07:59:00,